Regional Weather Roundup
Issued by NWS

Home | Current Version | Previous Version | Text Only | Print | Product List | Glossary On
Versions: 1 2 3 4 5 6 7 8 9 10 11 12 13 14 15 16 17 18 19 20 21 22 23 24 25 26 27 28 29 30 31 32 33 34 35 36 37 38 39 40 41 42 43 44 45 46 47 48 49 50
756
ASUS44 KLIX 280301
RWRLA
LOUISIANA WEATHER ROUNDUP
NATIONAL WEATHER SERVICE NEW ORLEANS LA
900 PM CST FRI FEB 27 2015

NOTE: "FAIR" INDICATES FEW OR NO CLOUDS BELOW 12,000 FEET WITH NO
      SIGNIFICANT WEATHER AND/OR OBSTRUCTIONS TO VISIBILITY.
      SKY/WX - SKY CONDITION AND SIGNIFICANT WEATHER.
      TMP - AIR TEMPERATURE.    DP   - DEWPOINT TEMPERATURE.
      RH  - RELATIVE HUMIDITY.  PRES - PRESSURE.
      HX  - HEAT INDEX.         WCI  - WIND CHILL INDEX.

*  THESE STATIONS ARE NOT NWS OR FAA STATIONS AND ARE NOT UNDER
   NWS QUALITY CONTROL.

LAZ040-048-061>063-065-066-069-280400-
SOUTHEAST LOUISIANA

CITY           SKY/WX    TMP DP  RH WIND       PRES   REMARKS
N.O. AUDUBON     N/A     47  36  65 MISG        N/A
N.O. INTL ARPT PTCLDY    46  34  62 N13       30.40R
N.O. LAKEFRONT CLEAR     49  35  58 NE15      30.40R
SLIDELL        CLEAR     39  33  79 CALM      30.39R
BATON ROUGE    CLEAR     43  30  60 NE5       30.42R
BOOTHVILLE     MOCLDY    50  41  71 VRB7      30.35R
BELLE CHASSE   PTCLDY    47  31  53 N6        30.39R
BOGALUSA*        N/A     43  32  66 NE3       30.41R
GALLIANO*      MOCLDY    48  39  72 MISG      30.37R
NEW ROADS*     NOT AVBL
GONZALES*      NOT AVBL
HAMMOND*       NOT AVBL
HOUMA*         PTCLDY    45  35  67 N12       30.38R
PORT FOURCHON* CLEAR     50  39  66 N8        30.39R

$$

LAZ041-044-053-054-280400-
SOUTHWEST LOUISIANA

CITY           SKY/WX    TMP DP  RH WIND       PRES   REMARKS
LAKE CHARLES   CLEAR     42  33  70 NE10      30.41R
LAFAYETTE      CLEAR     40  31  70 N13       30.42R WCI  32
PATTERSON      CLEAR     45  34  65 NE5       30.41R
SALT POINT       N/A     43  36  76 CALM      30.38R
NEW IBERIA     CLEAR     43  32  65 N10       30.42R
CHENAULT AIRPK CLEAR     41  32  71 NE7       30.42R

$$

LAZ027-028-280400-
CENTRAL LOUISIANA

CITY           SKY/WX    TMP DP  RH WIND       PRES   REMARKS
FORT POLK      NOT AVBL
ALEXANDRIA INT CLOUDY    35  25  66 N12       30.46R WCI  27
ALEXANDRIA     MOCLDY    36  24  62 N3        30.47R

$$

LAZ001-002-280400-
NORTHWEST LOUISIANA

CITY           SKY/WX    TMP DP  RH WIND       PRES   REMARKS
SHREVEPORT     CLOUDY    34  21  59 E7        30.46R WCI  28
BARKSDALE AFB  CLOUDY    33  20  59 E5        30.47R WCI  28
DTN SHREVEPORT CLOUDY    33  18  53 E5        30.48R WCI  29

$$

LAZ014-016-280400-
NORTHEAST LOUISIANA

CITY           SKY/WX    TMP DP  RH WIND       PRES   REMARKS
MONROE         CLOUDY    32  24  72 NE13      30.52R WCI  22
TALLULAH       CLOUDY    33  25  72 N16       30.50R WCI  23

$$




USA.gov is the U.S. government's official web portal to all federal, state and local government web resources and services.